This is the latest recevied weather packets stored in our database for station/object W0BJ. If no packets are shown the sender has not sent any weather packets the latest 10 day(s).
| Time | Temp. | Humidity | Pressure | Rain* | Wind** | Luminosity | Snow |
|---|---|---|---|---|---|---|---|
| 1777823545 | 18.89° C | 43% | 1019.4 hPa | 0 mm | - | - | - |
| 1777822944 | 17.78° C | 45% | 1019.7 hPa | 0 mm | - | - | - |
| 1777822698 | 17.78° C | 46% | 1019.7 hPa | 0 mm | - | - | - |
| 1777822343 | 17.78° C | 45% | 1019.7 hPa | 0 mm | - | - | - |
| 1777821797 | 17.22° C | 45% | 1019.9 hPa | 0 mm | - | - | - |
| 1777821743 | 17.22° C | 45% | 1020 hPa | 0 mm | - | - | - |
| 1777821144 | 17.22° C | 46% | 1020.2 hPa | 0 mm | - | - | - |
| 1777820898 | 16.67° C | 46% | 1020.1 hPa | 0 mm | - | - | - |
| 1777820544 | 16.67° C | 48% | 1020.1 hPa | 0 mm | - | - | - |
| 1777819997 | 16.67° C | 48% | 1020.1 hPa | 0 mm | - | - | - |
| 1777819943 | 16.67° C | 48% | 1020.1 hPa | 0 mm | - | - | - |
| 1777819343 | 15.56° C | 49% | 1020.3 hPa | 0 mm | - | - | - |
| 1777819099 | 15.56° C | 48% | 1020.3 hPa | 0 mm | - | - | - |
| 1777818745 | 15.56° C | 48% | 1020.5 hPa | 0 mm | - | - | - |
| 1777818198 | 15.56° C | 48% | 1020.5 hPa | 0 mm | - | - | - |
| 1777818144 | 15.56° C | 49% | 1020.5 hPa | 0 mm | - | - | - |
| 1777817543 | 15° C | 50% | 1020.5 hPa | 0 mm | - | - | - |
| 1777817297 | 14.44° C | 50% | 1020.6 hPa | 0 mm | - | - | - |
| 1777816945 | 14.44° C | 51% | 1020.7 hPa | 0 mm | - | - | - |
| 1777816399 | 13.89° C | 53% | 1020.8 hPa | 0 mm | - | - | - |
| 1777816344 | 13.89° C | 53% | 1020.9 hPa | 0 mm | - | - | - |
| 1777815744 | 13.33° C | 52% | 1020.7 hPa | 0 mm | - | - | - |
| 1777815498 | 13.33° C | 53% | 1020.6 hPa | 0 mm | - | - | - |
| 1777815143 | 13.33° C | 53% | 1020.6 hPa | 0 mm | - | - | - |
| 1777814599 | 12.78° C | 55% | 1021 hPa | 0 mm | - | - | - |
* Rain latest hour (hover to see other rain measurements)
** Current wind speed in m/s (hover to see current wind gust speed)